Theta_e
322 323 324 325 327 327 330 326 324 326 328 327 330 349 353 353 356 362 359 363 364 358 359 356 346 341 337 335 334 339 344 344 345 342 338 338 334 338 336 335 335 342 345 347 348 347 345 344 342
322 324 323 324 326 330 328 325 325 325 326 325 328 339 350 349 344 354 357 364 364 362 359 358 347 343 339 336 334 333 335 338 344 345 343 344 338 338 338 342 344 342 344 345 347 346 342 339 338
322 322 326 325 325 328 328 323 324 325 326 326 337 343 339 330 336 348 361 364 364 364 362 361 348 346 341 337 333 332 330 330 337 344 345 346 342 338 340 346 346 343 343 346 346 345 343 339 338
322 323 323 327 325 323 323 323 322 326 328 329 337 337 326 324 338 359 362 362 361 362 363 361 348 347 343 339 335 333 330 329 330 335 340 343 340 338 339 343 345 340 343 350 346 343 342 341 338
320 322 324 325 324 321 321 321 322 325 326 328 334 332 325 325 352 360 360 360 360 358 357 358 348 347 345 341 337 334 332 330 331 332 334 337 338 339 341 342 342 336 338 346 345 343 340 338 338
321 322 322 324 322 321 321 321 321 323 323 324 327 328 324 321 335 352 357 357 358 360 358 359 351 347 346 344 340 336 334 331 330 331 333 334 336 337 338 340 337 336 339 343 343 341 340 340 339
321 321 321 322 321 321 320 320 320 321 322 321 322 326 324 322 319 328 349 351 355 359 360 359 358 355 346 345 344 340 336 334 331 331 331 332 333 335 337 336 336 337 340 342 342 343 343 341 337
320 321 320 320 321 320 319 320 319 320 320 320 321 322 324 320 319 320 323 339 339 347 356 360 360 358 357 355 347 344 341 337 334 332 334 334 334 334 335 335 336 336 338 341 343 343 341 335 332
318 319 320 319 320 320 319 319 320 319 319 319 320 320 319 318 319 320 320 321 327 341 344 350 360 360 358 356 356 350 344 342 339 338 335 338 342 344 342 342 342 338 337 340 341 341 339 333 332
320 320 319 318 319 319 319 319 319 319 319 319 319 319 318 319 320 320 320 320 321 322 331 344 355 360 359 358 356 356 354 353 351 349 348 345 344 344 343 343 342 343 340 339 338 339 339 338 337
319 320 319 318 319 319 318 318 318 318 319 318 318 318 319 318 319 320 320 320 320 320 320 329 342 358 360 355 358 357 357 355 354 353 351 350 346 347 345 343 345 346 342 343 342 340 341 340 338
318 318 319 319 318 318 318 318 318 317 318 317 317 318 318 319 319 319 320 321 320 320 320 321 328 340 349 345 351 355 356 354 354 353 353 351 350 348 347 344 343 344 342 342 341 340 338 340 341
319 318 318 317 317 317 317 318 317 317 317 317 318 318 318 318 319 318 318 319 320 321 322 322 322 325 335 344 345 350 354 350 352 353 353 352 350 349 348 346 345 343 342 340 341 340 338 338 340
318 318 318 317 317 317 317 318 316 317 318 318 318 318 318 319 320 320 322 322 322 321 322 323 324 325 329 339 344 348 355 347 352 352 353 353 352 350 348 347 346 344 343 341 340 339 338 338 336
318 318 317 317 317 317 317 316 317 317 318 318 318 319 320 321 322 323 324 324 324 324 323 325 326 325 326 335 344 349 345 346 348 351 353 353 353 350 350 347 345 345 344 344 344 342 340 339 336
317 318 317 318 317 317 317 317 318 318 318 318 318 320 322 323 324 325 324 324 325 326 327 327 327 326 325 330 337 343 342 348 346 350 351 351 351 351 350 349 348 346 345 344 343 342 340 338 338
318 317 318 318 318 317 318 318 318 318 318 319 319 323 323 323 324 325 324 325 326 326 328 329 329 328 327 326 336 343 342 348 345 347 346 345 349 348 349 350 350 350 347 344 343 342 340 341 343
318 318 318 318 318 318 318 318 319 319 319 318 320 323 323 325 325 324 324 324 325 327 328 330 330 330 329 327 328 336 337 342 344 348 343 344 348 348 349 349 350 350 350 347 342 342 340 342 343
318 318 319 319 318 318 319 319 319 319 319 318 322 323 324 324 324 324 324 324 324 325 328 330 330 331 329 325 327 331 336 337 342 342 342 347 348 348 348 345 343 343 346 344 347 341 342 337 344
319 319 319 318 318 318 319 320 320 318 318 321 322 323 323 323 324 324 324 324 324 324 325 328 331 331 328 325 329 333 332 333 332 335 339 346 345 347 344 341 336 336 338 340 345 347 344 343 341
319 319 318 318 318 319 319 319 319 317 318 321 321 322 323 324 324 324 324 324 323 324 324 326 329 332 328 325 325 335 343 343 342 339 342 343 346 344 340 337 338 337 339 336 341 345 346 343 340
318 318 317 318 319 320 318 319 319 317 319 320 321 323 323 324 324 324 324 323 323 323 323 324 327 331 330 326 326 334 340 337 332 337 335 338 343 334 332 337 339 341 340 338 343 343 345 344 343
318 318 318 318 320 319 318 319 319 317 318 320 318 321 323 321 320 322 323 322 322 323 322 322 324 329 332 332 331 334 339 335 337 329 335 336 330 334 336 340 340 342 341 339 340 343 344 345 347
317 318 320 320 318 319 319 317 316 317 319 318 317 319 322 321 320 319 319 320 320 322 323 321 321 324 330 333 334 336 338 336 328 330 330 329 329 331 338 338 340 340 341 341 341 341 342 344 344
319 320 322 319 319 318 318 318 319 318 317 317 317 320 321 321 319 319 319 320 320 321 322 322 321 321 325 332 334 335 341 341 336 335 330 329 329 329 331 340 340 339 338 338 339 340 341 341 343
319 320 317 320 318 318 318 318 320 318 319 319 320 320 320 319 319 319 319 319 320 320 322 321 321 320 321 326 333 335 337 334 333 333 332 331 331 334 338 340 340 339 338 338 338 341 340 341 342
319 319 318 319 319 321 318 317 317 317 318 319 319 318 318 318 318 318 318 319 321 321 319 320 320 319 319 321 326 332 334 336 338 339 340 337 338 338 337 337 336 336 336 335 337 337 336 336 336
318 317 319 321 324 320 317 317 316 317 316 317 316 317 317 317 317 317 320 321 320 321 318 320 319 318 318 318 321 326 330 332 334 335 334 333 332 331 333 332 332 331 331 333 332 331 331 329 328
316 317 317 318 318 321 321 317 316 316 316 317 316 316 317 317 317 317 316 315 315 319 318 318 318 317 316 316 318 322 325 326 327 329 330 330 330 331 331 330 329 326 327 324 324 324 323 322 320
314 315 316 324 321 320 324 325 316 317 317 318 317 317 317 317 317 316 315 314 314 314 313 314 317 315 315 316 316 319 321 323 325 326 326 327 327 328 327 323 321 317 317 317 317 317 317 316 314
Wind_Speed
4 4 4 6 6 6 5 5 3 8 3 7 8 6 10 13 10 5 8 4 6 8 10 12 16 16 15 14 13 14 15 15 15 15 16 15 15 15 16 15 16 15 15 12 11 10 9 8 7
3 4 6 3 7 7 6 4 7 9 8 8 4 5 1 13 15 9 6 6 3 7 12 13 16 15 13 13 13 13 12 12 13 14 16 14 14 14 15 14 14 15 13 12 10 8 7 6 6
4 6 6 4 4 5 4 6 10 9 4 4 1 7 7 8 12 6 9 6 4 6 11 12 16 15 14 13 12 11 11 12 13 14 15 14 14 14 14 13 13 13 13 11 10 8 7 6 5
7 7 4 9 7 5 4 7 9 9 5 7 1 8 7 13 7 8 6 6 5 6 9 12 15 13 12 12 12 12 12 13 14 15 15 16 15 15 15 13 13 13 12 11 10 9 8 7 7
7 4 5 4 5 6 6 7 7 9 4 9 2 6 9 15 9 6 5 5 5 6 7 8 11 11 11 11 11 10 11 11 13 14 15 16 16 16 16 15 14 14 13 12 11 10 10 9 8
6 4 7 9 7 5 6 6 7 8 10 11 8 5 7 13 13 9 6 5 6 5 5 7 9 10 10 10 11 11 11 12 12 13 14 15 15 16 16 15 15 14 13 12 11 11 10 10 9
4 6 1 5 10 7 6 5 8 8 10 10 9 1 4 13 15 11 5 3 3 3 2 4 6 8 10 11 11 12 12 12 13 14 14 14 15 16 16 16 16 15 14 13 12 12 11 11 11
2 3 7 3 10 5 4 4 5 8 9 5 12 5 6 14 14 10 8 4 4 1 1 3 6 8 9 10 11 12 13 14 14 14 14 15 15 16 17 17 17 17 16 15 14 13 12 12 12
2 4 5 4 5 5 4 3 5 2 5 7 7 8 10 12 12 11 8 6 3 4 4 6 5 7 9 10 10 12 14 15 16 15 16 16 14 14 16 16 17 18 18 16 16 15 14 13 14
2 2 5 5 4 2 2 3 4 2 1 4 7 9 12 11 10 11 11 11 11 8 7 7 7 9 9 9 10 10 12 13 14 15 15 16 16 15 15 16 19 20 19 18 19 18 17 16 14
3 7 5 6 4 3 2 1 3 5 2 7 12 14 14 13 11 11 10 10 11 12 10 10 7 10 11 11 10 10 11 12 14 16 17 16 16 16 16 16 15 17 19 18 17 18 17 18 16
9 6 4 5 3 3 1 4 4 4 6 8 12 13 12 11 9 11 12 11 12 12 13 12 11 11 13 14 13 13 13 13 14 15 17 18 17 16 16 16 15 15 16 16 18 17 17 17 16
6 4 2 4 3 2 2 5 5 5 5 9 11 12 12 11 12 12 12 13 13 14 14 15 13 14 15 15 16 16 16 14 14 15 16 18 18 17 16 16 16 16 15 16 17 18 18 18 18
3 1 4 1 2 4 7 9 6 2 6 10 11 10 8 9 10 10 11 14 15 15 15 14 15 14 15 17 18 19 17 15 15 14 15 16 18 17 17 16 16 16 17 17 17 17 17 18 19
1 7 7 2 3 3 12 12 12 2 9 11 10 9 8 7 10 10 13 14 15 15 16 16 14 14 15 18 19 19 21 18 17 15 15 16 17 18 17 17 16 17 18 16 18 18 18 19 19
3 5 5 5 3 4 8 11 4 4 12 13 8 5 6 8 11 14 16 16 17 16 17 18 16 16 16 17 21 20 19 18 19 16 14 15 16 17 16 18 18 16 17 18 18 20 19 20 20
3 6 7 7 5 8 8 16 6 13 14 10 6 3 5 8 10 13 15 17 19 19 19 19 18 18 18 17 18 21 19 19 19 17 16 15 15 15 18 16 16 16 19 20 21 20 20 22 20
8 10 9 11 8 12 15 16 16 14 13 8 4 4 6 7 8 11 14 16 17 18 19 20 19 18 18 18 17 20 21 22 21 21 19 17 15 14 15 17 16 17 17 20 24 23 23 27 23
7 10 13 12 11 11 13 18 18 17 10 6 3 4 6 8 8 11 13 15 18 20 21 21 21 20 17 17 19 20 22 23 21 20 18 17 16 15 15 17 18 17 19 21 22 26 25 26 28
9 11 12 10 6 13 16 24 19 10 1 1 3 4 7 8 10 12 15 17 19 21 24 25 23 20 17 16 20 20 20 23 21 18 16 15 16 16 15 17 18 21 22 23 23 24 24 26 30
10 10 12 13 17 17 15 19 2 7 4 3 1 3 6 7 9 11 14 17 20 24 26 28 28 23 17 14 17 17 15 14 12 14 14 15 17 17 15 16 19 21 22 26 24 24 26 24 24
14 7 9 15 16 15 16 9 11 5 8 6 3 5 6 8 9 11 14 17 19 21 24 27 30 27 18 11 15 17 18 20 19 12 9 10 14 15 17 18 18 19 22 22 26 25 24 24 25
11 9 14 18 21 16 16 7 5 3 10 11 5 5 5 8 10 12 13 16 18 20 23 26 30 29 24 13 10 13 17 15 14 13 10 11 13 16 17 15 14 16 18 21 24 25 25 26 27
9 13 21 11 8 10 6 6 8 5 7 10 11 4 4 7 12 13 15 15 18 18 22 22 27 30 30 22 10 9 12 15 15 13 12 10 18 17 13 14 14 15 17 18 20 24 26 26 27
8 14 9 7 8 10 3 9 14 16 9 9 8 6 4 10 14 15 16 16 17 16 19 21 23 28 30 26 15 7 9 10 14 8 10 12 15 15 13 9 14 17 18 20 20 22 24 25 22
14 6 7 11 13 19 18 9 5 5 5 5 3 4 7 12 15 16 17 16 17 17 17 19 20 24 29 29 21 13 8 9 7 3 7 11 14 15 13 15 17 18 19 21 20 20 23 22 23
3 7 8 12 18 16 12 11 11 5 5 6 8 5 11 14 17 18 18 12 12 14 15 17 18 22 27 30 28 17 13 12 10 7 6 6 8 9 12 14 17 18 18 19 18 17 19 19 25
11 9 7 7 7 14 15 22 15 8 12 5 11 8 12 13 13 13 14 13 15 11 15 13 16 19 24 29 27 22 17 17 14 10 10 11 10 10 12 15 18 19 16 14 15 14 17 18 14
9 11 11 10 8 14 16 9 17 22 19 11 10 13 18 12 9 9 11 14 13 12 12 16 15 15 23 31 28 22 19 17 15 15 16 15 14 14 15 15 16 16 15 13 14 12 10 10 8
7 9 10 9 14 12 14 18 22 12 17 8 10 15 17 10 6 9 10 15 16 16 17 15 15 18 13 21 27 25 21 21 20 19 18 16 16 15 14 13 13 14 13 12 9 5 3 2 6
Wind_Direction
316 261 233 245 240 242 130 68 333 354 354 359 331 319 12 32 17 37 54 95 49 150 159 161 172 173 171 169 169 175 182 181 181 180 180 177 178 177 172 166 165 169 169 168 167 168 170 178 193
258 213 226 273 260 207 123 11 14 355 344 330 259 244 33 74 27 67 34 34 29 159 164 164 175 176 175 173 178 176 179 183 186 186 186 188 188 183 180 176 177 183 182 181 180 180 183 189 202
217 222 259 262 268 277 118 30 5 350 2 357 186 21 37 356 11 11 27 30 53 144 163 170 177 183 180 180 185 185 184 186 189 191 192 195 195 191 190 191 190 193 195 197 195 196 200 207 220
215 195 211 251 100 66 63 35 1 10 64 23 333 86 86 26 353 6 36 48 71 122 154 191 179 187 189 189 192 194 192 191 192 193 196 199 200 199 200 204 202 201 204 206 210 213 224 231 239
227 241 220 205 112 123 79 29 4 33 26 31 328 94 84 32 34 37 46 52 76 114 149 166 182 190 196 199 203 204 201 200 199 201 203 205 205 206 207 204 206 206 210 214 217 229 236 242 246
213 280 224 187 129 130 80 23 13 24 31 30 57 107 78 42 30 22 30 54 60 98 147 170 194 199 206 209 213 212 212 210 210 208 208 209 210 210 210 210 211 214 216 219 226 234 240 243 250
274 244 86 141 143 123 37 354 25 354 26 30 356 76 83 28 11 4 14 33 48 61 142 181 200 207 217 218 220 224 222 220 220 219 217 216 216 216 217 217 217 220 224 225 229 235 240 248 253
248 254 168 191 181 107 39 342 357 20 37 359 359 30 18 354 352 346 351 334 330 359 269 234 220 217 218 227 236 228 227 229 226 227 227 227 225 224 223 224 227 224 227 229 233 239 243 247 252
275 221 157 134 186 104 47 331 38 64 16 48 45 25 1 350 347 343 337 305 297 283 277 260 250 235 232 234 233 243 233 229 230 230 229 228 227 234 230 230 230 236 229 231 235 240 247 249 256
279 154 81 70 72 23 41 338 5 294 353 31 6 1 353 349 353 340 330 323 317 313 297 249 245 251 241 238 232 233 227 228 226 226 224 224 229 231 231 234 237 238 238 236 238 241 245 252 252
14 91 127 113 47 355 40 125 6 319 280 8 341 335 333 330 332 329 325 320 312 309 295 280 259 257 254 246 243 241 235 231 229 227 226 229 230 235 236 234 239 238 245 240 245 245 244 243 245
111 83 47 66 95 171 165 329 282 314 345 342 328 326 313 313 318 319 322 317 310 308 303 291 279 264 260 259 251 250 238 237 234 232 229 230 230 233 233 236 237 237 237 239 240 241 239 239 240
100 94 107 110 143 163 277 293 303 239 360 324 328 315 313 312 314 314 310 307 308 301 302 294 290 274 264 257 255 250 246 240 242 237 233 230 235 237 236 236 237 243 243 242 242 244 242 240 240
54 51 160 88 50 192 308 301 236 156 336 322 326 317 315 315 333 330 339 328 316 305 298 296 286 282 264 252 252 249 243 245 241 241 240 237 238 241 242 243 240 240 245 244 244 244 245 244 245
183 213 182 211 330 301 326 263 210 339 323 319 332 323 330 347 347 348 347 338 333 316 305 301 295 285 271 255 249 248 248 244 242 240 237 234 238 239 241 248 253 251 247 244 251 246 244 245 246
229 232 272 139 296 114 308 291 334 333 320 318 329 321 329 349 353 356 342 336 332 325 317 305 298 286 274 260 247 242 248 245 244 241 239 237 234 235 239 249 256 257 253 248 248 248 244 240 239
190 322 321 325 304 307 308 299 295 308 315 321 303 340 346 347 8 3 353 346 337 331 324 316 307 289 274 260 250 242 243 240 244 240 238 237 235 237 242 246 260 261 253 242 242 252 246 245 236
334 324 316 310 328 314 300 290 305 305 310 307 291 347 5 11 23 7 359 356 351 345 333 322 314 303 287 263 243 240 238 238 237 237 240 240 239 244 244 246 257 261 256 250 239 240 242 250 244
314 307 304 309 339 311 302 298 300 304 294 258 330 349 10 9 8 7 10 6 2 358 352 340 326 316 297 260 235 232 230 231 228 236 240 236 235 239 240 249 258 257 259 259 253 239 241 243 255
311 301 303 314 322 316 304 299 296 297 286 259 339 354 357 357 1 3 3 5 3 1 357 351 342 327 303 264 242 236 239 233 228 231 237 240 239 233 236 251 262 264 262 258 254 243 238 237 236
309 308 320 315 313 287 288 290 239 173 225 176 356 329 347 357 352 357 358 3 1 3 359 357 351 341 322 277 248 235 235 241 220 225 233 243 240 238 244 251 257 264 261 263 256 245 244 243 243
302 16 301 296 305 303 317 291 255 199 216 219 304 321 343 351 344 344 342 352 355 1 1 359 358 354 342 308 251 231 230 224 223 231 227 242 239 239 243 250 258 264 268 265 260 257 249 238 240
305 319 294 290 295 294 278 239 91 142 238 221 356 334 336 360 352 348 342 339 338 350 359 1 360 360 356 340 273 242 235 229 205 198 184 208 239 242 251 258 265 272 273 268 265 258 254 247 244
313 289 294 274 264 259 77 279 296 324 250 285 319 328 330 347 341 341 335 330 339 343 350 356 2 359 0 359 332 263 255 237 209 202 208 221 238 250 256 267 273 281 278 277 272 266 259 256 246
260 315 314 292 268 299 85 271 273 297 314 287 307 328 322 339 330 334 330 334 327 342 349 350 0 1 0 1 359 319 272 267 256 244 240 247 261 268 271 290 292 291 293 286 281 273 265 258 251
295 299 292 301 309 305 305 273 45 0 330 323 320 302 314 336 332 326 324 331 331 339 340 350 358 5 360 357 1 5 339 282 274 283 294 272 277 295 304 298 297 297 296 292 282 272 269 262 262
73 256 358 286 278 272 274 280 219 249 233 246 274 325 327 337 327 328 320 325 338 349 343 354 357 4 9 356 352 353 8 5 7 13 326 335 317 328 313 307 305 304 300 293 281 270 268 261 260
250 334 284 259 295 298 306 306 294 6 330 266 316 325 323 324 337 339 341 339 334 335 5 337 356 3 5 352 348 351 358 4 4 2 359 11 357 336 327 322 319 314 309 299 287 274 269 257 241
280 249 234 260 284 288 296 286 332 327 306 312 299 330 324 329 318 329 346 344 346 350 346 356 352 347 2 340 334 345 357 355 0 5 0 357 344 339 336 337 332 330 322 311 294 280 266 228 212
257 278 295 277 285 290 292 282 287 338 344 282 356 299 316 312 333 338 336 328 332 342 345 339 339 352 328 325 323 332 347 347 357 4 360 353 348 351 355 359 355 354 346 341 337 348 6 111 109